Time,TemperatureF,DewpointF,PressureIn,WindDirection,WindDirectionDegrees,WindSpeedMPH,WindSpeedGustMPH,Humidity,HourlyPrecipIn,Conditions,Clouds,dailyrainin,SoftwareType,DateUTC
2013-09-24 00:01:00,46.5,40.0,30.00,NNW,327,0.0,0.0,78,0.00,,,0.00,WeatherCatV1.15B25,2013-09-24 04:01:00,
2013-09-24 00:02:00,46.5,40.0,30.00,West,279,0.0,0.0,78,0.00,,,0.00,WeatherCatV1.15B25,2013-09-24 04:02:00,
2013-09-24 00:07:00,46.3,39.8,30.00,WNW,300,1.0,1.0,78,0.00,,,0.00,WeatherCatV1.15B25,2013-09-24 04:07:00,
2013-09-24 00:12:00,46.4,39.9,30.00,WNW,292,2.0,2.0,78,0.00,,,0.00,WeatherCatV1.15B25,2013-09-24 04:12:00,
2013-09-24 00:17:00,46.4,39.6,30.00,WNW,285,1.0,2.0,77,0.00,,,0.00,WeatherCatV1.15B25,2013-09-24 04:17:00,
2013-09-24 00:22:00,46.4,39.6,30.00,WNW,297,2.0,2.0,77,0.00,,,0.00,WeatherCatV1.15B25,2013-09-24 04:22:00,
2013-09-24 00:27:00,46.4,39.6,30.00,WNW,289,0.0,3.0,77,0.00,,,0.00,WeatherCatV1.15B25,2013-09-24 04:27:00,
2013-09-24 00:32:00,46.3,39.8,30.00,NW,309,0.0,2.0,78,0.00,,,0.00,WeatherCatV1.15B25,2013-09-24 04:32:00,
2013-09-24 00:37:00,46.2,39.7,30.00,WNW,297,0.0,3.0,78,0.00,,,0.00,WeatherCatV1.15B25,2013-09-24 04:37:00,
2013-09-24 00:42:00,46.1,39.6,30.00,North,10,0.0,5.0,78,0.00,,,0.00,WeatherCatV1.15B25,2013-09-24 04:42:00,
2013-09-24 00:47:00,46.0,39.5,30.00,North,353,1.0,4.0,78,0.00,,,0.00,WeatherCatV1.15B25,2013-09-24 04:47:00,
2013-09-24 00:52:00,46.0,39.5,30.00,NW,326,0.0,2.0,78,0.00,,,0.00,WeatherCatV1.15B25,2013-09-24 04:52:00,
2013-09-24 00:57:00,46.0,39.5,30.00,WNW,289,1.0,1.0,78,0.00,,,0.00,WeatherCatV1.15B25,2013-09-24 04:57:00,
2013-09-24 01:02:00,45.9,39.8,30.00,WNW,290,1.0,2.0,79,0.00,,,0.00,WeatherCatV1.15B25,2013-09-24 05:02:00,
2013-09-24 01:07:00,45.8,39.7,29.99,WNW,293,0.0,2.0,79,0.00,,,0.00,WeatherCatV1.15B25,2013-09-24 05:07:00,
2013-09-24 01:12:00,45.7,39.6,30.00,WNW,293,0.0,2.0,79,0.00,,,0.00,WeatherCatV1.15B25,2013-09-24 05:12:00,
2013-09-24 01:17:00,45.6,39.5,30.00,West,274,0.0,2.0,79,0.00,,,0.00,WeatherCatV1.15B25,2013-09-24 05:17:00,
2013-09-24 01:22:00,45.6,39.5,29.99,WNW,291,0.0,1.0,79,0.00,,,0.00,WeatherCatV1.15B25,2013-09-24 05:22:00,
2013-09-24 01:27:00,45.6,39.5,30.00,NW,304,1.0,3.0,79,0.00,,,0.00,WeatherCatV1.15B25,2013-09-24 05:27:00,
2013-09-24 01:32:00,45.6,39.5,30.00,NNW,338,0.0,1.0,79,0.00,,,0.00,WeatherCatV1.15B25,2013-09-24 05:32:00,
2013-09-24 01:37:00,45.6,39.5,30.00,WNW,298,1.0,3.0,79,0.00,,,0.00,WeatherCatV1.15B25,2013-09-24 05:37:00,
2013-09-24 01:42:00,45.6,39.5,29.99,WNW,288,0.0,0.0,79,0.00,,,0.00,WeatherCatV1.15B25,2013-09-24 05:42:00,
2013-09-24 01:47:00,45.5,39.7,29.99,WNW,288,0.0,2.0,80,0.00,,,0.00,WeatherCatV1.15B25,2013-09-24 05:47:00,
2013-09-24 01:52:00,45.5,39.7,29.99,WNW,293,0.0,1.0,80,0.00,,,0.00,WeatherCatV1.15B25,2013-09-24 05:52:00,
2013-09-24 01:57:00,45.3,39.5,29.99,NW,305,0.0,1.0,80,0.00,,,0.00,WeatherCatV1.15B25,2013-09-24 05:57:00,
2013-09-24 02:02:00,45.1,39.3,29.99,WNW,292,0.0,0.0,80,0.00,,,0.00,WeatherCatV1.15B25,2013-09-24 06:02:00,
2013-09-24 02:07:00,45.0,39.5,29.99,WNW,288,0.0,2.0,81,0.00,,,0.00,WeatherCatV1.15B25,2013-09-24 06:07:00,
2013-09-24 02:12:00,44.9,39.4,29.99,WNW,293,0.0,0.0,81,0.00,,,0.00,WeatherCatV1.15B25,2013-09-24 06:12:00,
2013-09-24 02:17:00,44.8,39.6,29.99,WNW,293,0.0,0.0,82,0.00,,,0.00,WeatherCatV1.15B25,2013-09-24 06:17:00,
2013-09-24 02:22:00,44.5,39.4,29.99,WNW,293,0.0,1.0,82,0.00,,,0.00,WeatherCatV1.15B25,2013-09-24 06:22:00,
2013-09-24 02:27:00,44.3,39.5,29.98,West,281,0.0,2.0,83,0.00,,,0.00,WeatherCatV1.15B25,2013-09-24 06:27:00,
2013-09-24 02:32:00,44.3,39.5,29.98,West,277,0.0,0.0,83,0.00,,,0.00,WeatherCatV1.15B25,2013-09-24 06:32:00,
2013-09-24 02:37:00,44.4,39.6,29.98,WNW,292,0.0,0.0,83,0.00,,,0.00,WeatherCatV1.15B25,2013-09-24 06:37:00,
2013-09-24 02:42:00,44.8,39.6,29.97,WNW,290,2.0,2.0,82,0.00,,,0.00,WeatherCatV1.15B25,2013-09-24 06:42:00,
2013-09-24 02:47:00,45.0,39.5,29.97,WNW,293,0.0,3.0,81,0.00,,,0.00,WeatherCatV1.15B25,2013-09-24 06:47:00,
2013-09-24 02:52:00,45.1,39.6,29.97,NW,311,0.0,2.0,81,0.00,,,0.00,WeatherCatV1.15B25,2013-09-24 06:52:00,
2013-09-24 02:57:00,45.0,39.5,29.97,NW,304,0.0,1.0,81,0.00,,,0.00,WeatherCatV1.15B25,2013-09-24 06:57:00,
2013-09-24 03:02:00,45.0,39.5,29.98,WNW,290,1.0,1.0,81,0.00,,,0.00,WeatherCatV1.15B25,2013-09-24 07:02:00,
2013-09-24 03:07:00,44.9,39.4,29.97,North,10,0.0,1.0,81,0.00,,,0.00,WeatherCatV1.15B25,2013-09-24 07:07:00,
2013-09-24 03:12:00,44.8,39.3,29.98,NNW,331,0.0,1.0,81,0.00,,,0.00,WeatherCatV1.15B25,2013-09-24 07:12:00,
2013-09-24 03:17:00,44.7,39.5,29.98,WNW,284,0.0,2.0,82,0.00,,,0.00,WeatherCatV1.15B25,2013-09-24 07:17:00,
2013-09-24 03:22:00,44.6,39.5,29.98,West,276,0.0,2.0,82,0.00,,,0.00,WeatherCatV1.15B25,2013-09-24 07:22:00,
2013-09-24 03:27:00,44.6,39.5,29.97,West,272,0.0,1.0,82,0.00,,,0.00,WeatherCatV1.15B25,2013-09-24 07:27:00,
2013-09-24 03:32:00,44.5,39.4,29.97,WNW,288,0.0,1.0,82,0.00,,,0.00,WeatherCatV1.15B25,2013-09-24 07:32:00,
2013-09-24 03:37:00,44.4,39.3,29.97,WNW,290,2.0,3.0,82,0.00,,,0.00,WeatherCatV1.15B25,2013-09-24 07:37:00,
2013-09-24 03:42:00,44.5,39.4,29.97,NW,306,0.0,2.0,82,0.00,,,0.00,WeatherCatV1.15B25,2013-09-24 07:42:00,
2013-09-24 03:47:00,44.5,39.4,29.97,NW,307,3.0,3.0,82,0.00,,,0.00,WeatherCatV1.15B25,2013-09-24 07:47:00,
2013-09-24 03:52:00,44.6,39.5,29.97,WNW,290,1.0,4.0,82,0.00,,,0.00,WeatherCatV1.15B25,2013-09-24 07:52:00,
2013-09-24 03:57:00,44.7,39.2,29.97,WNW,285,1.0,2.0,81,0.00,,,0.00,WeatherCatV1.15B25,2013-09-24 07:57:00,
2013-09-24 04:02:00,44.7,39.5,29.97,West,278,0.0,1.0,82,0.00,,,0.00,WeatherCatV1.15B25,2013-09-24 08:02:00,
2013-09-24 04:07:00,44.6,39.1,29.97,WNW,288,1.0,2.0,81,0.00,,,0.00,WeatherCatV1.15B25,2013-09-24 08:07:00,
2013-09-24 04:12:00,44.7,39.2,29.97,NNW,330,0.0,2.0,81,0.00,,,0.00,WeatherCatV1.15B25,2013-09-24 08:12:00,
2013-09-24 04:17:00,44.7,39.2,29.97,NW,310,2.0,3.0,81,0.00,,,0.00,WeatherCatV1.15B25,2013-09-24 08:17:00,
2013-09-24 04:22:00,44.6,39.1,29.97,West,279,0.0,1.0,81,0.00,,,0.00,WeatherCatV1.15B25,2013-09-24 08:22:00,
2013-09-24 04:27:00,44.6,39.5,29.97,NNW,327,1.0,1.0,82,0.00,,,0.00,WeatherCatV1.15B25,2013-09-24 08:27:00,
2013-09-24 04:32:00,44.6,39.5,29.96,WNW,289,0.0,2.0,82,0.00,,,0.00,WeatherCatV1.15B25,2013-09-24 08:32:00,
2013-09-24 04:37:00,44.5,39.4,29.96,WNW,301,0.0,5.0,82,0.00,,,0.00,WeatherCatV1.15B25,2013-09-24 08:37:00,
2013-09-24 04:42:00,44.6,39.5,29.96,WNW,302,0.0,2.0,82,0.00,,,0.00,WeatherCatV1.15B25,2013-09-24 08:42:00,
2013-09-24 04:47:00,44.5,39.4,29.96,WNW,285,0.0,2.0,82,0.00,,,0.00,WeatherCatV1.15B25,2013-09-24 08:47:00,
2013-09-24 04:52:00,44.5,39.4,29.96,NW,309,1.0,1.0,82,0.00,,,0.00,WeatherCatV1.15B25,2013-09-24 08:52:00,
2013-09-24 04:57:00,44.6,39.5,29.96,NW,310,0.0,1.0,82,0.00,,,0.00,WeatherCatV1.15B25,2013-09-24 08:57:00,
2013-09-24 05:02:00,44.7,39.2,29.96,WNW,285,0.0,2.0,81,0.00,,,0.00,WeatherCatV1.15B25,2013-09-24 09:02:00,
2013-09-24 05:07:00,44.7,39.2,29.96,NW,305,0.0,3.0,81,0.00,,,0.00,WeatherCatV1.15B25,2013-09-24 09:07:00,
2013-09-24 05:12:00,44.7,39.2,29.96,WNW,291,1.0,1.0,81,0.00,,,0.00,WeatherCatV1.15B25,2013-09-24 09:12:00,
2013-09-24 05:17:00,44.7,39.2,29.96,NW,307,1.0,4.0,81,0.00,,,0.00,WeatherCatV1.15B25,2013-09-24 09:17:00,
2013-09-24 05:22:00,44.8,39.3,29.96,WNW,298,0.0,2.0,81,0.00,,,0.00,WeatherCatV1.15B25,2013-09-24 09:22:00,
2013-09-24 05:27:00,44.8,39.3,29.96,NNW,342,1.0,1.0,81,0.00,,,0.00,WeatherCatV1.15B25,2013-09-24 09:27:00,
2013-09-24 05:32:00,44.9,39.4,29.96,West,281,3.0,6.0,81,0.00,,,0.00,WeatherCatV1.15B25,2013-09-24 09:32:00,
2013-09-24 05:37:00,45.0,39.2,29.96,WNW,297,3.0,4.0,80,0.00,,,0.00,WeatherCatV1.15B25,2013-09-24 09:37:00,
2013-09-24 05:42:00,45.2,39.4,29.96,WNW,299,3.0,4.0,80,0.00,,,0.00,WeatherCatV1.15B25,2013-09-24 09:42:00,
2013-09-24 05:47:00,45.2,39.4,29.96,WNW,293,0.0,1.0,80,0.00,,,0.00,WeatherCatV1.15B25,2013-09-24 09:47:00,
2013-09-24 05:52:00,45.1,39.3,29.96,NW,312,0.0,1.0,80,0.00,,,0.00,WeatherCatV1.15B25,2013-09-24 09:52:00,
2013-09-24 05:57:00,45.1,39.6,29.96,NW,316,1.0,4.0,81,0.00,,,0.00,WeatherCatV1.15B25,2013-09-24 09:57:00,
2013-09-24 06:02:00,45.1,39.6,29.96,NNW,338,0.0,3.0,81,0.00,,,0.00,WeatherCatV1.15B25,2013-09-24 10:02:00,
2013-09-24 06:07:00,45.1,39.6,29.96,West,281,3.0,3.0,81,0.00,,,0.00,WeatherCatV1.15B25,2013-09-24 10:07:00,
2013-09-24 06:12:00,44.9,39.7,29.96,NNW,342,1.0,2.0,82,0.00,,,0.00,WeatherCatV1.15B25,2013-09-24 10:12:00,
2013-09-24 06:17:00,44.6,39.5,29.95,NW,316,0.0,3.0,82,0.00,,,0.00,WeatherCatV1.15B25,2013-09-24 10:17:00,
2013-09-24 06:22:00,44.3,39.5,29.95,NW,306,0.0,4.0,83,0.00,,,0.00,WeatherCatV1.15B25,2013-09-24 10:22:00,
2013-09-24 06:27:00,44.1,39.3,29.95,NW,317,0.0,3.0,83,0.00,,,0.00,WeatherCatV1.15B25,2013-09-24 10:27:00,
2013-09-24 06:32:00,44.1,39.6,29.96,West,280,0.0,1.0,84,0.00,,,0.00,WeatherCatV1.15B25,2013-09-24 10:32:00,
2013-09-24 06:37:00,44.0,39.5,29.96,WNW,302,1.0,1.0,84,0.00,,,0.00,WeatherCatV1.15B25,2013-09-24 10:37:00,
2013-09-24 06:42:00,43.8,39.3,29.96,WNW,292,0.0,1.0,84,0.00,,,0.00,WeatherCatV1.15B25,2013-09-24 10:42:00,
2013-09-24 06:48:00,43.6,39.1,29.96,WNW,292,0.0,0.0,84,0.00,,,0.00,WeatherCatV1.15B25,2013-09-24 10:48:00,
2013-09-24 06:53:00,43.3,39.1,29.96,WNW,292,0.0,0.0,85,0.00,,,0.00,WeatherCatV1.15B25,2013-09-24 10:53:00,
2013-09-24 06:58:00,43.0,39.1,29.96,West,281,1.0,1.0,86,0.00,,,0.00,WeatherCatV1.15B25,2013-09-24 10:58:00,
2013-09-24 07:03:00,42.9,39.3,29.96,WNW,293,0.0,0.0,87,0.00,,,0.00,WeatherCatV1.15B25,2013-09-24 11:03:00,
2013-09-24 07:08:00,42.9,39.3,29.96,WNW,293,0.0,0.0,87,0.00,,,0.00,WeatherCatV1.15B25,2013-09-24 11:08:00,
2013-09-24 07:13:00,42.8,39.2,29.96,WNW,293,0.0,0.0,87,0.00,,,0.00,WeatherCatV1.15B25,2013-09-24 11:13:00,
2013-09-24 07:18:00,43.0,39.4,29.96,NW,323,0.0,0.0,87,0.00,,,0.00,WeatherCatV1.15B25,2013-09-24 11:18:00,
2013-09-24 07:23:00,43.1,39.5,29.95,WNW,288,0.0,0.0,87,0.00,,,0.00,WeatherCatV1.15B25,2013-09-24 11:23:00,
2013-09-24 07:28:00,43.3,39.7,29.95,WNW,287,0.0,1.0,87,0.00,,,0.00,WeatherCatV1.15B25,2013-09-24 11:28:00,
2013-09-24 07:33:00,43.5,39.6,29.95,WNW,287,1.0,1.0,86,0.00,,,0.00,WeatherCatV1.15B25,2013-09-24 11:33:00,
2013-09-24 07:38:00,43.7,39.8,29.95,WNW,287,0.0,1.0,86,0.00,,,0.00,WeatherCatV1.15B25,2013-09-24 11:38:00,
2013-09-24 07:43:00,43.9,40.0,29.95,WNW,287,0.0,0.0,86,0.00,,,0.00,WeatherCatV1.15B25,2013-09-24 11:43:00,
2013-09-24 07:48:00,44.2,40.3,29.95,WNW,287,0.0,0.0,86,0.00,,,0.00,WeatherCatV1.15B25,2013-09-24 11:48:00,
2013-09-24 07:53:00,44.6,40.4,29.95,WNW,283,0.0,0.0,85,0.00,,,0.00,WeatherCatV1.15B25,2013-09-24 11:53:00,
2013-09-24 07:58:00,45.4,40.2,29.95,WNW,288,2.0,2.0,82,0.00,,,0.00,WeatherCatV1.15B25,2013-09-24 11:58:00,
2013-09-24 08:03:00,46.0,40.2,29.95,WNW,286,1.0,1.0,80,0.00,,,0.00,WeatherCatV1.15B25,2013-09-24 12:03:00,
2013-09-24 08:08:00,46.4,40.6,29.95,WNW,290,1.0,1.0,80,0.00,,,0.00,WeatherCatV1.15B25,2013-09-24 12:08:00,
2013-09-24 08:13:00,46.6,40.8,29.94,West,265,2.0,4.0,80,0.00,,,0.00,WeatherCatV1.15B25,2013-09-24 12:13:00,
2013-09-24 08:18:00,46.8,40.6,29.94,West,262,1.0,4.0,79,0.00,,,0.00,WeatherCatV1.15B25,2013-09-24 12:18:00,
2013-09-24 08:23:00,47.2,40.7,29.94,WNW,295,1.0,6.0,78,0.00,,,0.00,WeatherCatV1.15B25,2013-09-24 12:23:00,
2013-09-24 08:28:00,47.6,40.4,29.94,South,190,0.0,3.0,76,0.00,,,0.00,WeatherCatV1.15B25,2013-09-24 12:28:00,
2013-09-24 08:33:00,48.0,40.5,29.94,North,8,0.0,5.0,75,0.00,,,0.00,WeatherCatV1.15B25,2013-09-24 12:33:00,
2013-09-24 08:38:00,48.2,40.7,29.93,WNW,301,2.0,4.0,75,0.00,,,0.00,WeatherCatV1.15B25,2013-09-24 12:38:00,
2013-09-24 08:43:00,48.5,40.6,29.93,West,270,0.0,3.0,74,0.00,,,0.00,WeatherCatV1.15B25,2013-09-24 12:43:00,
2013-09-24 08:48:00,48.9,40.6,29.93,WNW,285,0.0,4.0,73,0.00,,,0.00,WeatherCatV1.15B25,2013-09-24 12:48:00,
2013-09-24 08:53:00,49.1,40.8,29.93,NW,309,2.0,8.0,73,0.00,,,0.00,WeatherCatV1.15B25,2013-09-24 12:53:00,
2013-09-24 08:58:00,49.4,41.5,29.93,West,277,2.0,3.0,74,0.00,,,0.00,WeatherCatV1.15B25,2013-09-24 12:58:00,
2013-09-24 09:03:00,49.7,41.0,29.93,West,270,1.0,7.0,72,0.00,,,0.00,WeatherCatV1.15B25,2013-09-24 13:03:00,
2013-09-24 09:08:00,49.8,41.1,29.93,WNW,302,1.0,7.0,72,0.00,,,0.00,WeatherCatV1.15B25,2013-09-24 13:08:00,
2013-09-24 09:13:00,50.0,41.3,29.92,WNW,293,1.0,2.0,72,0.00,,,0.00,WeatherCatV1.15B25,2013-09-24 13:13:00,
2013-09-24 09:18:00,50.7,41.6,29.92,West,274,2.0,9.0,71,0.00,,,0.00,WeatherCatV1.15B25,2013-09-24 13:18:00,
2013-09-24 09:23:00,51.1,41.3,29.92,WNW,293,2.0,6.0,69,0.00,,,0.00,WeatherCatV1.15B25,2013-09-24 13:23:00,
2013-09-24 09:28:00,51.4,41.2,29.92,NNW,330,3.0,5.0,68,0.00,,,0.00,WeatherCatV1.15B25,2013-09-24 13:28:00,
2013-09-24 09:33:00,51.6,41.0,29.91,West,280,1.0,5.0,67,0.00,,,0.00,WeatherCatV1.15B25,2013-09-24 13:33:00,
2013-09-24 09:38:00,52.0,41.4,29.91,NW,305,4.0,6.0,67,0.00,,,0.00,WeatherCatV1.15B25,2013-09-24 13:38:00,
2013-09-24 09:43:00,52.3,41.7,29.91,NW,321,3.0,4.0,67,0.00,,,0.00,WeatherCatV1.15B25,2013-09-24 13:43:00,
2013-09-24 09:48:00,52.6,41.2,29.91,WNW,302,7.0,7.0,65,0.00,,,0.00,WeatherCatV1.15B25,2013-09-24 13:48:00,
2013-09-24 09:53:00,52.9,41.5,29.91,NNW,329,1.0,4.0,65,0.00,,,0.00,WeatherCatV1.15B25,2013-09-24 13:53:00,
2013-09-24 09:58:00,53.3,41.8,29.91,WNW,297,7.0,10.0,65,0.00,,,0.00,WeatherCatV1.15B25,2013-09-24 13:58:00,
2013-09-24 10:03:00,53.8,41.5,29.91,WNW,298,3.0,8.0,63,0.00,,,0.00,WeatherCatV1.15B25,2013-09-24 14:03:00,
2013-09-24 10:08:00,54.1,41.8,29.91,West,271,1.0,3.0,63,0.00,,,0.00,WeatherCatV1.15B25,2013-09-24 14:08:00,
2013-09-24 10:13:00,54.6,42.3,29.90,WNW,290,2.0,3.0,63,0.00,,,0.00,WeatherCatV1.15B25,2013-09-24 14:13:00,
2013-09-24 10:18:00,55.1,41.9,29.90,NNW,330,1.0,5.0,61,0.00,,,0.00,WeatherCatV1.15B25,2013-09-24 14:18:00,
2013-09-24 10:23:00,55.4,42.2,29.90,NNW,338,2.0,6.0,61,0.00,,,0.00,WeatherCatV1.15B25,2013-09-24 14:23:00,
2013-09-24 10:28:00,55.5,41.8,29.90,NW,323,3.0,4.0,60,0.00,,,0.00,WeatherCatV1.15B25,2013-09-24 14:28:00,
2013-09-24 10:33:00,55.7,41.6,29.90,NNW,337,2.0,8.0,59,0.00,,,0.00,WeatherCatV1.15B25,2013-09-24 14:33:00,
2013-09-24 10:38:00,55.6,41.5,29.90,WNW,295,4.0,7.0,59,0.00,,,0.00,WeatherCatV1.15B25,2013-09-24 14:38:00,
2013-09-24 10:43:00,55.7,41.6,29.90,WNW,295,2.0,5.0,59,0.00,,,0.00,WeatherCatV1.15B25,2013-09-24 14:43:00,
2013-09-24 10:48:00,56.1,42.0,29.89,North,0,2.0,9.0,59,0.00,,,0.00,WeatherCatV1.15B25,2013-09-24 14:48:00,
2013-09-24 10:53:00,56.3,42.2,29.89,NW,321,3.0,8.0,59,0.00,,,0.00,WeatherCatV1.15B25,2013-09-24 14:53:00,
2013-09-24 10:58:00,56.6,42.0,29.89,NW,326,2.0,3.0,58,0.00,,,0.00,WeatherCatV1.15B25,2013-09-24 14:58:00,
2013-09-24 11:03:00,56.6,42.0,29.89,NNW,341,2.0,5.0,58,0.00,,,0.00,WeatherCatV1.15B25,2013-09-24 15:03:00,
2013-09-24 11:08:00,56.7,41.6,29.89,NW,314,3.0,8.0,57,0.00,,,0.00,WeatherCatV1.15B25,2013-09-24 15:08:00,
2013-09-24 11:13:00,57.1,42.5,29.89,NNW,347,4.0,8.0,58,0.00,,,0.00,WeatherCatV1.15B25,2013-09-24 15:13:00,
2013-09-24 11:18:00,57.4,42.3,29.89,NNW,331,4.0,5.0,57,0.00,,,0.00,WeatherCatV1.15B25,2013-09-24 15:18:00,
2013-09-24 11:23:00,57.5,42.4,29.89,West,268,5.0,8.0,57,0.00,,,0.00,WeatherCatV1.15B25,2013-09-24 15:23:00,
2013-09-24 11:28:00,57.8,42.7,29.90,NW,319,2.0,4.0,57,0.00,,,0.00,WeatherCatV1.15B25,2013-09-24 15:28:00,
2013-09-24 11:33:00,58.1,43.4,29.90,West,270,2.0,10.0,58,0.00,,,0.00,WeatherCatV1.15B25,2013-09-24 15:33:00,
2013-09-24 11:38:00,58.4,42.8,29.90,NW,305,2.0,7.0,56,0.00,,,0.00,WeatherCatV1.15B25,2013-09-24 15:38:00,
2013-09-24 11:43:00,58.9,43.7,29.90,NW,326,2.0,3.0,57,0.00,,,0.00,WeatherCatV1.15B25,2013-09-24 15:43:00,
2013-09-24 11:48:00,59.2,43.0,29.89,NE,48,2.0,6.0,55,0.00,,,0.00,WeatherCatV1.15B25,2013-09-24 15:48:00,
2013-09-24 11:53:00,58.9,42.8,29.89,NNE,30,3.0,5.0,55,0.00,,,0.00,WeatherCatV1.15B25,2013-09-24 15:53:00,
2013-09-24 11:58:00,59.0,43.8,29.89,NW,318,2.0,4.0,57,0.00,,,0.00,WeatherCatV1.15B25,2013-09-24 15:58:00,
2013-09-24 12:03:00,59.3,42.7,29.89,ENE,64,1.0,7.0,54,0.00,,,0.00,WeatherCatV1.15B25,2013-09-24 16:03:00,
2013-09-24 12:08:00,59.3,43.6,29.89,NNW,335,3.0,7.0,56,0.00,,,0.00,WeatherCatV1.15B25,2013-09-24 16:08:00,
2013-09-24 12:13:00,59.9,43.7,29.89,ESE,103,1.0,5.0,55,0.00,,,0.00,WeatherCatV1.15B25,2013-09-24 16:13:00,
2013-09-24 12:18:00,60.1,43.9,29.88,WNW,297,4.0,4.0,55,0.00,,,0.00,WeatherCatV1.15B25,2013-09-24 16:18:00,
2013-09-24 12:23:00,60.1,42.9,29.88,NNW,348,6.0,9.0,53,0.00,,,0.00,WeatherCatV1.15B25,2013-09-24 16:23:00,
2013-09-24 12:28:00,60.2,43.0,29.87,SW,222,0.0,6.0,53,0.00,,,0.00,WeatherCatV1.15B25,2013-09-24 16:28:00,
2013-09-24 12:33:00,60.3,42.6,29.87,WSW,243,2.0,6.0,52,0.00,,,0.00,WeatherCatV1.15B25,2013-09-24 16:33:00,
2013-09-24 12:38:00,60.6,43.4,29.87,NNW,329,2.0,3.0,53,0.00,,,0.00,WeatherCatV1.15B25,2013-09-24 16:38:00,
2013-09-24 12:43:00,60.8,43.1,29.87,NNW,335,1.0,7.0,52,0.00,,,0.00,WeatherCatV1.15B25,2013-09-24 16:43:00,
2013-09-24 12:48:00,61.1,42.3,29.86,NW,322,2.0,6.0,50,0.00,,,0.00,WeatherCatV1.15B25,2013-09-24 16:48:00,
2013-09-24 12:53:00,61.3,42.5,29.86,NNW,334,0.0,5.0,50,0.00,,,0.00,WeatherCatV1.15B25,2013-09-24 16:53:00,
2013-09-24 12:58:00,61.5,43.2,29.86,NNW,331,3.0,4.0,51,0.00,,,0.00,WeatherCatV1.15B25,2013-09-24 16:58:00,
2013-09-24 13:03:00,61.3,43.0,29.86,ESE,122,3.0,8.0,51,0.00,,,0.00,WeatherCatV1.15B25,2013-09-24 17:03:00,
2013-09-24 13:08:00,61.7,42.9,29.86,NNW,330,1.0,4.0,50,0.00,,,0.00,WeatherCatV1.15B25,2013-09-24 17:08:00,
2013-09-24 13:13:00,61.8,41.9,29.86,WNW,300,1.0,6.0,48,0.00,,,0.00,WeatherCatV1.15B25,2013-09-24 17:13:00,
2013-09-24 13:18:00,62.0,43.1,29.86,North,354,3.0,6.0,50,0.00,,,0.00,WeatherCatV1.15B25,2013-09-24 17:18:00,
2013-09-24 13:23:00,62.3,43.4,29.86,NNE,13,1.0,2.0,50,0.00,,,0.00,WeatherCatV1.15B25,2013-09-24 17:23:00,
2013-09-24 13:28:00,62.8,43.9,29.86,NNE,14,3.0,3.0,50,0.00,,,0.00,WeatherCatV1.15B25,2013-09-24 17:28:00,
2013-09-24 13:33:00,62.8,43.4,29.86,NW,326,3.0,5.0,49,0.00,,,0.00,WeatherCatV1.15B25,2013-09-24 17:33:00,
2013-09-24 13:38:00,62.5,42.5,29.86,NNE,18,1.0,5.0,48,0.00,,,0.00,WeatherCatV1.15B25,2013-09-24 17:38:00,
2013-09-24 13:43:00,62.8,42.8,29.86,WNW,303,1.0,4.0,48,0.00,,,0.00,WeatherCatV1.15B25,2013-09-24 17:43:00,
2013-09-24 13:48:00,63.0,41.9,29.85,East,100,3.0,4.0,46,0.00,,,0.00,WeatherCatV1.15B25,2013-09-24 17:48:00,
2013-09-24 13:53:00,63.0,42.4,29.85,NW,326,1.0,2.0,47,0.00,,,0.00,WeatherCatV1.15B25,2013-09-24 17:53:00,
2013-09-24 13:58:00,63.3,41.6,29.85,NNW,328,3.0,4.0,45,0.00,,,0.00,WeatherCatV1.15B25,2013-09-24 17:58:00,
2013-09-24 14:03:00,63.3,41.6,29.85,SW,223,2.0,4.0,45,0.00,,,0.00,WeatherCatV1.15B25,2013-09-24 18:03:00,
2013-09-24 14:08:00,63.3,41.6,29.84,NW,309,1.0,4.0,45,0.00,,,0.00,WeatherCatV1.15B25,2013-09-24 18:08:00,
2013-09-24 14:13:00,63.3,41.6,29.84,WNW,295,8.0,8.0,45,0.00,,,0.00,WeatherCatV1.15B25,2013-09-24 18:13:00,
2013-09-24 14:18:00,63.7,42.0,29.84,NNE,25,1.0,4.0,45,0.00,,,0.00,WeatherCatV1.15B25,2013-09-24 18:18:00,
2013-09-24 14:23:00,64.1,41.7,29.83,NNW,341,2.0,3.0,44,0.00,,,0.00,WeatherCatV1.15B25,2013-09-24 18:23:00,
2013-09-24 14:28:00,64.3,41.3,29.83,WNW,303,1.0,7.0,43,0.00,,,0.00,WeatherCatV1.15B25,2013-09-24 18:28:00,
2013-09-24 14:33:00,64.4,41.4,29.83,NNW,347,2.0,4.0,43,0.00,,,0.00,WeatherCatV1.15B25,2013-09-24 18:33:00,
2013-09-24 14:38:00,64.5,42.1,29.84,NNE,32,2.0,5.0,44,0.00,,,0.00,WeatherCatV1.15B25,2013-09-24 18:38:00,
2013-09-24 14:43:00,64.7,42.3,29.84,WNW,282,1.0,3.0,44,0.00,,,0.00,WeatherCatV1.15B25,2013-09-24 18:43:00,
2013-09-24 14:48:00,64.7,42.9,29.84,NW,325,2.0,3.0,45,0.00,,,0.00,WeatherCatV1.15B25,2013-09-24 18:48:00,
2013-09-24 14:53:00,64.7,42.9,29.83,WSW,256,1.0,3.0,45,0.00,,,0.00,WeatherCatV1.15B25,2013-09-24 18:53:00,
2013-09-24 14:58:00,64.3,42.5,29.83,NNE,33,1.0,3.0,45,0.00,,,0.00,WeatherCatV1.15B25,2013-09-24 18:58:00,
2013-09-24 15:03:00,64.5,43.3,29.83,North,9,1.0,2.0,46,0.00,,,0.00,WeatherCatV1.15B25,2013-09-24 19:03:00,
2013-09-24 15:08:00,64.9,43.0,29.83,NNW,329,0.0,1.0,45,0.00,,,0.00,WeatherCatV1.15B25,2013-09-24 19:08:00,
2013-09-24 15:13:00,65.2,42.7,29.83,North,1,2.0,4.0,44,0.00,,,0.00,WeatherCatV1.15B25,2013-09-24 19:13:00,
2013-09-24 15:18:00,65.4,42.9,29.83,NNE,17,2.0,3.0,44,0.00,,,0.00,WeatherCatV1.15B25,2013-09-24 19:18:00,
2013-09-24 15:23:00,65.2,42.7,29.83,NNW,328,2.0,2.0,44,0.00,,,0.00,WeatherCatV1.15B25,2013-09-24 19:23:00,
2013-09-24 15:28:00,65.4,43.5,29.83,WNW,283,1.0,4.0,45,0.00,,,0.00,WeatherCatV1.15B25,2013-09-24 19:28:00,
2013-09-24 15:33:00,65.5,43.0,29.83,NW,315,1.0,2.0,44,0.00,,,0.00,WeatherCatV1.15B25,2013-09-24 19:33:00,
2013-09-24 15:38:00,65.5,43.0,29.83,ENE,68,1.0,4.0,44,0.00,,,0.00,WeatherCatV1.15B25,2013-09-24 19:38:00,
2013-09-24 15:43:00,65.5,43.0,29.83,North,10,3.0,6.0,44,0.00,,,0.00,WeatherCatV1.15B25,2013-09-24 19:43:00,
2013-09-24 15:48:00,65.6,43.1,29.83,NNW,330,1.0,2.0,44,0.00,,,0.00,WeatherCatV1.15B25,2013-09-24 19:48:00,
2013-09-24 15:53:00,65.5,43.0,29.83,NNE,18,1.0,3.0,44,0.00,,,0.00,WeatherCatV1.15B25,2013-09-24 19:53:00,
2013-09-24 15:58:00,65.6,43.7,29.83,NE,49,0.0,3.0,45,0.00,,,0.00,WeatherCatV1.15B25,2013-09-24 19:58:00,
2013-09-24 16:03:00,65.6,43.1,29.83,NW,304,0.0,3.0,44,0.00,,,0.00,WeatherCatV1.15B25,2013-09-24 20:03:00,
2013-09-24 16:08:00,65.6,44.3,29.83,WNW,299,2.0,2.0,46,0.00,,,0.00,WeatherCatV1.15B25,2013-09-24 20:08:00,
2013-09-24 16:13:00,65.7,43.8,29.83,North,359,2.0,3.0,45,0.00,,,0.00,WeatherCatV1.15B25,2013-09-24 20:13:00,
2013-09-24 16:18:00,65.6,42.5,29.83,North,359,1.0,4.0,43,0.00,,,0.00,WeatherCatV1.15B25,2013-09-24 20:18:00,
2013-09-24 16:23:00,65.4,42.9,29.83,NE,48,0.0,2.0,44,0.00,,,0.00,WeatherCatV1.15B25,2013-09-24 20:23:00,
2013-09-24 16:28:00,65.5,43.0,29.83,NW,309,1.0,6.0,44,0.00,,,0.00,WeatherCatV1.15B25,2013-09-24 20:28:00,
2013-09-24 16:33:00,65.6,42.5,29.83,NNW,346,1.0,4.0,43,0.00,,,0.00,WeatherCatV1.15B25,2013-09-24 20:33:00,
2013-09-24 16:38:00,65.6,43.1,29.84,NW,324,3.0,6.0,44,0.00,,,0.00,WeatherCatV1.15B25,2013-09-24 20:38:00,
2013-09-24 16:43:00,65.4,42.3,29.84,North,11,0.0,5.0,43,0.00,,,0.00,WeatherCatV1.15B25,2013-09-24 20:43:00,
2013-09-24 16:48:00,65.4,41.7,29.84,NW,311,1.0,4.0,42,0.00,,,0.00,WeatherCatV1.15B25,2013-09-24 20:48:00,
2013-09-24 16:53:00,65.4,42.9,29.84,NNW,336,1.0,3.0,44,0.00,,,0.00,WeatherCatV1.15B25,2013-09-24 20:53:00,
2013-09-24 16:58:00,65.2,42.7,29.84,WNW,297,3.0,3.0,44,0.00,,,0.00,WeatherCatV1.15B25,2013-09-24 20:58:00,
2013-09-24 17:03:00,64.9,42.5,29.84,NE,44,1.0,3.0,44,0.00,,,0.00,WeatherCatV1.15B25,2013-09-24 21:03:00,
2013-09-24 17:08:00,64.6,42.8,29.84,ENE,65,1.0,3.0,45,0.00,,,0.00,WeatherCatV1.15B25,2013-09-24 21:08:00,
2013-09-24 17:13:00,64.2,41.8,29.84,NW,316,2.0,7.0,44,0.00,,,0.00,WeatherCatV1.15B25,2013-09-24 21:13:00,
2013-09-24 17:18:00,63.8,42.6,29.85,NW,311,1.0,1.0,46,0.00,,,0.00,WeatherCatV1.15B25,2013-09-24 21:18:00,
2013-09-24 17:23:00,63.6,43.0,29.85,West,259,1.0,8.0,47,0.00,,,0.00,WeatherCatV1.15B25,2013-09-24 21:23:00,
2013-09-24 17:28:00,63.5,42.9,29.85,WNW,303,5.0,5.0,47,0.00,,,0.00,WeatherCatV1.15B25,2013-09-24 21:28:00,
2013-09-24 17:33:00,63.3,42.7,29.85,NNE,18,1.0,4.0,47,0.00,,,0.00,WeatherCatV1.15B25,2013-09-24 21:33:00,
2013-09-24 17:38:00,63.2,43.7,29.85,NNW,336,0.0,1.0,49,0.00,,,0.00,WeatherCatV1.15B25,2013-09-24 21:38:00,
2013-09-24 17:43:00,62.9,44.5,29.86,WNW,291,1.0,2.0,51,0.00,,,0.00,WeatherCatV1.15B25,2013-09-24 21:43:00,
2013-09-24 17:48:00,62.8,43.9,29.86,NNW,328,1.0,2.0,50,0.00,,,0.00,WeatherCatV1.15B25,2013-09-24 21:48:00,
2013-09-24 17:53:00,62.8,43.9,29.86,North,9,1.0,2.0,50,0.00,,,0.00,WeatherCatV1.15B25,2013-09-24 21:53:00,
2013-09-24 17:58:00,62.7,43.8,29.86,NW,322,0.0,2.0,50,0.00,,,0.00,WeatherCatV1.15B25,2013-09-24 21:58:00,
2013-09-24 18:03:00,62.5,44.1,29.86,SW,218,1.0,1.0,51,0.00,,,0.00,WeatherCatV1.15B25,2013-09-24 22:03:00,
2013-09-24 18:08:00,62.3,43.9,29.86,NNE,26,2.0,3.0,51,0.00,,,0.00,WeatherCatV1.15B25,2013-09-24 22:08:00,
2013-09-24 18:13:00,62.0,44.2,29.87,North,6,1.0,3.0,52,0.00,,,0.00,WeatherCatV1.15B25,2013-09-24 22:13:00,
2013-09-24 18:18:00,61.7,43.9,29.87,SW,221,0.0,1.0,52,0.00,,,0.00,WeatherCatV1.15B25,2013-09-24 22:18:00,
2013-09-24 18:23:00,61.4,44.1,29.87,West,265,0.0,1.0,53,0.00,,,0.00,WeatherCatV1.15B25,2013-09-24 22:23:00,
2013-09-24 18:28:00,61.1,44.3,29.87,NNW,346,0.0,1.0,54,0.00,,,0.00,WeatherCatV1.15B25,2013-09-24 22:28:00,
2013-09-24 18:33:00,60.9,44.1,29.87,NW,320,0.0,1.0,54,0.00,,,0.00,WeatherCatV1.15B25,2013-09-24 22:33:00,
2013-09-24 18:38:00,60.8,44.5,29.87,NE,44,0.0,1.0,55,0.00,,,0.00,WeatherCatV1.15B25,2013-09-24 22:38:00,
2013-09-24 18:43:00,60.5,44.2,29.88,NNE,20,0.0,1.0,55,0.00,,,0.00,WeatherCatV1.15B25,2013-09-24 22:43:00,
2013-09-24 18:48:00,60.2,44.4,29.88,NNW,330,1.0,1.0,56,0.00,,,0.00,WeatherCatV1.15B25,2013-09-24 22:48:00,
2013-09-24 18:53:00,60.1,44.3,29.88,NNW,347,1.0,2.0,56,0.00,,,0.00,WeatherCatV1.15B25,2013-09-24 22:53:00,
2013-09-24 18:58:00,60.0,44.7,29.88,ESE,108,0.0,0.0,57,0.00,,,0.00,WeatherCatV1.15B25,2013-09-24 22:58:00,
2013-09-24 19:03:00,59.8,44.5,29.89,ESE,102,0.0,1.0,57,0.00,,,0.00,WeatherCatV1.15B25,2013-09-24 23:03:00,
2013-09-24 19:08:00,59.7,44.4,29.89,NNW,338,0.0,0.0,57,0.00,,,0.00,WeatherCatV1.15B25,2013-09-24 23:08:00,
2013-09-24 19:13:00,59.7,44.4,29.89,NNW,335,0.0,2.0,57,0.00,,,0.00,WeatherCatV1.15B25,2013-09-24 23:13:00,
2013-09-24 19:18:00,59.6,44.3,29.89,WNW,302,0.0,3.0,57,0.00,,,0.00,WeatherCatV1.15B25,2013-09-24 23:18:00,
2013-09-24 19:23:00,59.5,44.7,29.89,West,281,0.0,1.0,58,0.00,,,0.00,WeatherCatV1.15B25,2013-09-24 23:23:00,
2013-09-24 19:28:00,59.3,45.0,29.90,ESE,123,2.0,2.0,59,0.00,,,0.00,WeatherCatV1.15B25,2013-09-24 23:28:00,
2013-09-24 19:33:00,59.0,45.6,29.90,SE,146,0.0,1.0,61,0.00,,,0.00,WeatherCatV1.15B25,2013-09-24 23:33:00,
2013-09-24 19:38:00,58.5,45.9,29.90,ESE,113,0.0,0.0,63,0.00,,,0.00,WeatherCatV1.15B25,2013-09-24 23:38:00,
2013-09-24 19:43:00,57.8,45.3,29.90,ESE,118,0.0,1.0,63,0.00,,,0.00,WeatherCatV1.15B25,2013-09-24 23:43:00,
2013-09-24 19:48:00,57.3,45.6,29.90,ESE,117,0.0,2.0,65,0.00,,,0.00,WeatherCatV1.15B25,2013-09-24 23:48:00,
2013-09-24 19:53:00,56.7,45.5,29.90,ESE,110,0.0,1.0,66,0.00,,,0.00,WeatherCatV1.15B25,2013-09-24 23:53:00,
2013-09-24 19:58:00,56.3,45.5,29.91,ESE,110,0.0,0.0,67,0.00,,,0.00,WeatherCatV1.15B25,2013-09-24 23:58:00,
2013-09-24 20:03:00,55.9,45.5,29.91,ESE,110,0.0,0.0,68,0.00,,,0.00,WeatherCatV1.15B25,2013-09-25 00:03:00,
2013-09-24 20:08:00,55.5,45.5,29.91,ESE,110,0.0,0.0,69,0.00,,,0.00,WeatherCatV1.15B25,2013-09-25 00:08:00,
2013-09-24 20:13:00,55.1,45.5,29.91,ESE,110,0.0,0.0,70,0.00,,,0.00,WeatherCatV1.15B25,2013-09-25 00:13:00,
2013-09-24 20:18:00,54.8,45.6,29.91,ESE,110,0.0,0.0,71,0.00,,,0.00,WeatherCatV1.15B25,2013-09-25 00:18:00,
2013-09-24 20:23:00,54.4,45.6,29.91,ESE,110,0.0,0.0,72,0.00,,,0.00,WeatherCatV1.15B25,2013-09-25 00:23:00,
2013-09-24 20:28:00,54.0,45.5,29.91,ESE,110,0.0,0.0,73,0.00,,,0.00,WeatherCatV1.15B25,2013-09-25 00:28:00,
2013-09-24 20:33:00,53.6,45.5,29.91,ESE,110,0.0,0.0,74,0.00,,,0.00,WeatherCatV1.15B25,2013-09-25 00:33:00,
2013-09-24 20:38:00,53.2,45.5,29.91,ESE,110,0.0,0.0,75,0.00,,,0.00,WeatherCatV1.15B25,2013-09-25 00:38:00,
2013-09-24 20:43:00,52.9,45.5,29.91,ESE,110,0.0,0.0,76,0.00,,,0.00,WeatherCatV1.15B25,2013-09-25 00:43:00,
2013-09-24 20:48:00,52.5,45.5,29.91,ESE,110,0.0,0.0,77,0.00,,,0.00,WeatherCatV1.15B25,2013-09-25 00:48:00,
2013-09-24 20:53:00,52.2,45.2,29.91,ESE,110,0.0,0.0,77,0.00,,,0.00,WeatherCatV1.15B25,2013-09-25 00:53:00,
2013-09-24 20:58:00,51.9,45.3,29.92,ESE,110,0.0,0.0,78,0.00,,,0.00,WeatherCatV1.15B25,2013-09-25 00:58:00,
2013-09-24 21:03:00,51.7,45.4,29.91,ESE,110,0.0,1.0,79,0.00,,,0.00,WeatherCatV1.15B25,2013-09-25 01:03:00,
2013-09-24 21:08:00,51.6,45.3,29.92,ESE,110,0.0,0.0,79,0.00,,,0.00,WeatherCatV1.15B25,2013-09-25 01:08:00,
2013-09-24 21:13:00,51.5,45.2,29.92,ESE,110,0.0,0.0,79,0.00,,,0.00,WeatherCatV1.15B25,2013-09-25 01:13:00,
2013-09-24 21:18:00,51.3,45.3,29.92,ESE,110,0.0,0.0,80,0.00,,,0.00,WeatherCatV1.15B25,2013-09-25 01:18:00,
2013-09-24 21:23:00,51.1,45.1,29.91,ESE,110,0.0,0.0,80,0.00,,,0.00,WeatherCatV1.15B25,2013-09-25 01:23:00,
2013-09-24 21:28:00,50.9,45.0,29.92,ESE,110,0.0,0.0,80,0.00,,,0.00,WeatherCatV1.15B25,2013-09-25 01:28:00,
2013-09-24 21:33:00,51.0,45.0,29.92,ESE,110,0.0,0.0,80,0.00,,,0.00,WeatherCatV1.15B25,2013-09-25 01:33:00,
2013-09-24 21:38:00,51.1,45.1,29.92,ESE,110,0.0,0.0,80,0.00,,,0.00,WeatherCatV1.15B25,2013-09-25 01:38:00,
2013-09-24 21:43:00,51.1,45.1,29.92,ESE,110,0.0,1.0,80,0.00,,,0.00,WeatherCatV1.15B25,2013-09-25 01:43:00,
2013-09-24 21:48:00,51.0,45.0,29.92,ESE,110,0.0,0.0,80,0.00,,,0.00,WeatherCatV1.15B25,2013-09-25 01:48:00,
2013-09-24 21:53:00,51.0,45.0,29.92,ESE,110,0.0,1.0,80,0.00,,,0.00,WeatherCatV1.15B25,2013-09-25 01:53:00,
2013-09-24 21:58:00,51.0,44.7,29.92,NNW,333,0.0,1.0,79,0.00,,,0.00,WeatherCatV1.15B25,2013-09-25 01:58:00,
2013-09-24 22:03:00,51.1,44.8,29.92,NNW,333,0.0,0.0,79,0.00,,,0.00,WeatherCatV1.15B25,2013-09-25 02:03:00,
2013-09-24 22:08:00,51.1,45.1,29.92,NNW,334,0.0,0.0,80,0.00,,,0.00,WeatherCatV1.15B25,2013-09-25 02:08:00,
2013-09-24 22:13:00,51.0,45.0,29.92,NNW,334,0.0,0.0,80,0.00,,,0.00,WeatherCatV1.15B25,2013-09-25 02:13:00,
2013-09-24 22:18:00,50.9,44.6,29.92,NNW,334,0.0,0.0,79,0.00,,,0.00,WeatherCatV1.15B25,2013-09-25 02:18:00,
2013-09-24 22:23:00,50.8,44.9,29.92,NNW,334,0.0,0.0,80,0.00,,,0.00,WeatherCatV1.15B25,2013-09-25 02:23:00,
2013-09-24 22:28:00,50.7,44.8,29.92,NNW,334,0.0,0.0,80,0.00,,,0.00,WeatherCatV1.15B25,2013-09-25 02:28:00,
2013-09-24 22:33:00,50.5,44.9,29.92,NNW,334,0.0,0.0,81,0.00,,,0.00,WeatherCatV1.15B25,2013-09-25 02:33:00,
2013-09-24 22:38:00,50.4,44.8,29.92,NNW,334,0.0,0.0,81,0.00,,,0.00,WeatherCatV1.15B25,2013-09-25 02:38:00,
2013-09-24 22:43:00,50.2,44.6,29.91,NNW,334,0.0,0.0,81,0.00,,,0.00,WeatherCatV1.15B25,2013-09-25 02:43:00,
2013-09-24 22:48:00,50.0,44.4,29.92,NNW,334,0.0,0.0,81,0.00,,,0.00,WeatherCatV1.15B25,2013-09-25 02:48:00,
2013-09-24 22:53:00,49.9,44.6,29.92,NNW,334,0.0,0.0,82,0.00,,,0.00,WeatherCatV1.15B25,2013-09-25 02:53:00,
2013-09-24 22:58:00,49.9,44.6,29.92,NNW,334,0.0,0.0,82,0.00,,,0.00,WeatherCatV1.15B25,2013-09-25 02:58:00,
2013-09-24 23:03:00,49.8,44.5,29.91,NNW,334,0.0,0.0,82,0.00,,,0.00,WeatherCatV1.15B25,2013-09-25 03:03:00,
2013-09-24 23:08:00,49.7,44.4,29.91,NNW,334,0.0,0.0,82,0.00,,,0.00,WeatherCatV1.15B25,2013-09-25 03:08:00,
2013-09-24 23:13:00,49.5,44.6,29.91,NNW,334,0.0,0.0,83,0.00,,,0.00,WeatherCatV1.15B25,2013-09-25 03:13:00,
2013-09-24 23:18:00,49.4,44.5,29.92,NNW,334,0.0,0.0,83,0.00,,,0.00,WeatherCatV1.15B25,2013-09-25 03:18:00,
2013-09-24 23:23:00,49.3,44.4,29.92,NNW,334,0.0,0.0,83,0.00,,,0.00,WeatherCatV1.15B25,2013-09-25 03:23:00,
2013-09-24 23:28:00,49.2,44.3,29.92,NNW,334,0.0,0.0,83,0.00,,,0.00,WeatherCatV1.15B25,2013-09-25 03:28:00,
2013-09-24 23:33:00,49.0,44.4,29.91,NNW,334,0.0,0.0,84,0.00,,,0.00,WeatherCatV1.15B25,2013-09-25 03:33:00,
2013-09-24 23:38:00,48.8,44.2,29.91,NNW,334,0.0,0.0,84,0.00,,,0.00,WeatherCatV1.15B25,2013-09-25 03:38:00,
2013-09-24 23:43:00,48.6,44.0,29.92,NNW,334,0.0,0.0,84,0.00,,,0.00,WeatherCatV1.15B25,2013-09-25 03:43:00,
2013-09-24 23:48:00,48.5,44.2,29.91,NNW,334,0.0,0.0,85,0.00,,,0.00,WeatherCatV1.15B25,2013-09-25 03:48:00,
2013-09-24 23:53:00,48.5,44.2,29.91,NNW,334,0.0,0.0,85,0.00,,,0.00,WeatherCatV1.15B25,2013-09-25 03:53:00,
2013-09-24 23:58:00,48.3,44.0,29.91,NNW,334,0.0,0.0,85,0.00,,,0.00,WeatherCatV1.15B25,2013-09-25 03:58:00,